Location: Unspecified
(44.7420°N, 0.0000°E)
Time: 04:31:00
(UTC+00:00)

ASUSAT - Visible Passes

Search period start: 04 April 2026 00:00
Search period end: 14 April 2026 00:00
Orbit: 739 x 790 km, 100.2° (Epoch: 29 March)

Date Brightness Start Highest point End Pass type
(mag) Time Alt. Az. Time Alt. Az. Time Alt. Az.
4 Apr 8.4 00:30:08 10° NNE 00:31:35 18° NE 00:31:35 18° NE visible
4 Apr 7.8 02:09:10 10° N 02:11:46 23° NNW 02:11:46 23° NNW visible
4 Apr 8.8 23:54:08 10° NE 23:54:12 10° NE 23:54:12 10° NE visible
5 Apr 7.7 01:31:47 10° N 01:34:24 30° N 01:34:24 30° N visible
6 Apr 8.0 00:54:49 10° NNE 00:57:01 26° NNE 00:57:01 26° NNE visible
6 Apr 7.9 02:34:37 10° NNW 02:37:13 18° NW 02:37:13 18° NW visible
7 Apr 8.4 00:18:19 10° NE 00:19:39 17° NE 00:19:39 17° NE visible
7 Apr 7.5 01:56:54 10° N 01:59:50 29° NNW 01:59:50 29° NNW visible
8 Apr 7.5 01:19:40 10° NNE 01:22:28 33° N 01:22:28 33° N visible
8 Apr 8.2 03:00:34 10° NNW 03:02:39 13° NW 03:02:39 13° NW visible
9 Apr 8.0 00:42:51 10° NNE 00:45:05 25° NE 00:45:05 25° NE visible
9 Apr 7.6 02:22:11 10° N 02:25:16 23° NW 02:25:16 23° NW visible
10 Apr 8.5 00:06:38 10° NE 00:07:42 14° NE 00:07:42 14° NE visible
10 Apr 7.3 01:44:41 10° N 01:47:53 35° NNW 01:47:53 35° NNW visible
11 Apr 7.4 01:07:36 10° NNE 01:10:31 35° NNE 01:10:31 35° NNE visible
11 Apr 7.9 02:47:46 10° NNW 02:50:42 16° NW 02:50:42 16° NW visible
12 Apr 8.0 00:30:58 10° NNE 00:33:08 22° NE 00:33:08 22° NE visible
12 Apr 7.3 02:09:51 10° N 02:13:19 29° NW 02:13:19 29° NW visible
12 Apr 8.6 23:55:11 10° NE 23:55:45 12° ENE 23:55:45 12° ENE visible
13 Apr 7.0 01:32:31 10° N 01:35:56 42° N 01:35:56 42° N visible
13 Apr 8.2 03:14:21 10° NW 03:15:22 11° NW 03:16:07 10° WNW visible
